User: anonymous   Login
Location: Barnston
(51.8500°N, 0.4000°E)
Time: 11:58:42
(UTC+00:00)
Language:

NOSS 2-3 (E) - Orbit

View from above orbital plane
View from above orbital plane
View from above satellite
View from above satellite

Ground track
Ground track

The orbit data is extracted from the following two-line orbital elements,

1 23936U 96029E   24035.74439324 0.00002295  00000-0  57823-3 0    08
2 23936  63.3303 282.0624 0789133  38.1870 322.0303 13.42456281    04
Epoch (UTC): 04 February 2024 17:51:55
Eccentricity: 0.0789133
inclination: 63.3303°
perigee height: 510 km
apogee height: 1690 km
right ascension of ascending node: 282.0624°
argument of perigee: 38.1870°
revolutions per day: 13.42456281
mean anomaly at epoch: 322.0303°
orbit number at epoch: 0

The dashed part of the orbit path shows where the satellite is in the earth's shadow,  

DLR